Time,TemperatureF,DewpointF,PressureIn,WindDirection,WindDirectionDegrees,WindSpeedMPH,WindSpeedGustMPH,Humidity,HourlyPrecipIn,Conditions,Clouds,dailyrainin,SoftwareType,DateUTC
2013-03-17 00:04:00,30.6,20.5,30.09,North,0,3.8,8.3,66,0.00,OVC,FEW,0.00,WeatherDisplay:10.37,2013-03-17 05:04:00,
2013-03-17 00:09:00,30.4,20.4,30.08,NW,315,4.5,10.4,66,0.00,OVC,FEW,0.00,WeatherDisplay:10.37,2013-03-17 05:09:00,
2013-03-17 00:15:00,30.4,20.4,30.09,North,0,3.8,9.2,66,0.00,OVC,FEW,0.00,WeatherDisplay:10.37,2013-03-17 05:15:00,
2013-03-17 00:21:00,30.2,20.6,30.09,NNW,338,5.4,9.2,67,0.00,OVC,FEW,0.00,WeatherDisplay:10.37,2013-03-17 05:21:00,
2013-03-17 00:26:00,30.0,20.0,30.09,NW,315,8.3,13.8,66,0.00,OVC,FEW,0.00,WeatherDisplay:10.37,2013-03-17 05:26:00,
2013-03-17 00:32:00,29.8,19.9,30.08,NW,315,5.4,10.4,66,0.00,OVC,FEW,0.00,WeatherDisplay:10.37,2013-03-17 05:32:00,
2013-03-17 00:37:00,29.8,19.9,30.09,NW,315,4.5,10.4,66,0.00,OVC,FEW,0.00,WeatherDisplay:10.37,2013-03-17 05:37:00,
2013-03-17 00:43:00,29.8,19.9,30.08,NW,315,2.2,6.0,66,0.00,OVC,FEW,0.00,WeatherDisplay:10.37,2013-03-17 05:43:00,
2013-03-17 00:49:00,29.7,19.7,30.08,NW,315,6.0,12.7,66,0.00,OVC,FEW,0.00,WeatherDisplay:10.37,2013-03-17 05:49:00,
2013-03-17 00:54:00,29.5,19.9,30.09,North,0,4.5,8.1,67,0.00,OVC,FEW,0.00,WeatherDisplay:10.37,2013-03-17 05:54:00,
2013-03-17 01:00:00,29.5,20.2,30.09,North,0,3.8,8.1,68,0.00,OVC,FEW,0.00,WeatherDisplay:10.37,2013-03-17 06:00:00,
2013-03-17 01:05:00,29.5,20.2,30.09,NW,315,3.8,8.1,68,0.00,OVC,FEW,0.00,WeatherDisplay:10.37,2013-03-17 06:05:00,
2013-03-17 01:11:00,29.5,19.9,30.08,NW,315,2.2,6.9,67,0.00,OVC,FEW,0.00,WeatherDisplay:10.37,2013-03-17 06:11:00,
2013-03-17 01:17:00,29.3,19.3,30.09,North,0,3.1,8.1,66,0.00,OVC,FEW,0.00,WeatherDisplay:10.37,2013-03-17 06:17:00,
2013-03-17 01:22:00,29.3,19.3,30.09,NW,315,2.2,4.6,66,0.00,OVC,FEW,0.00,WeatherDisplay:10.37,2013-03-17 06:22:00,
2013-03-17 01:28:00,29.1,18.8,30.09,North,0,6.0,10.4,65,0.00,OVC,FEW,0.00,WeatherDisplay:10.37,2013-03-17 06:28:00,
2013-03-17 01:33:00,29.1,19.2,30.09,North,0,4.5,8.1,66,0.00,OVC,FEW,0.00,WeatherDisplay:10.37,2013-03-17 06:33:00,
2013-03-17 01:39:00,29.1,19.2,30.09,NW,315,3.1,10.4,66,0.00,OVC,FEW,0.00,WeatherDisplay:10.37,2013-03-17 06:39:00,
2013-03-17 01:45:00,28.9,19.3,30.09,NW,315,6.9,10.4,67,0.00,OVC,FEW,0.00,WeatherDisplay:10.37,2013-03-17 06:45:00,
2013-03-17 01:50:00,28.9,19.3,30.08,NW,315,3.8,9.2,67,0.00,OVC,FEW,0.00,WeatherDisplay:10.37,2013-03-17 06:50:00,
2013-03-17 01:56:00,28.8,18.8,30.09,North,0,6.0,10.4,66,0.00,OVC,FEW,0.00,WeatherDisplay:10.37,2013-03-17 06:56:00,
2013-03-17 02:01:00,28.6,18.3,30.09,WNW,292,9.8,12.7,65,0.00,OVC,FEW,0.00,WeatherDisplay:10.37,2013-03-17 07:01:00,
2013-03-17 02:07:00,28.6,18.7,30.08,North,0,5.4,6.9,66,0.00,OVC,FEW,0.00,WeatherDisplay:10.37,2013-03-17 07:07:00,
2013-03-17 02:13:00,28.6,18.7,30.09,NW,315,3.8,6.9,66,0.00,OVC,FEW,0.00,WeatherDisplay:10.37,2013-03-17 07:13:00,
2013-03-17 02:18:00,28.4,18.8,30.09,NW,315,6.9,10.4,67,0.00,OVC,FEW,0.00,WeatherDisplay:10.37,2013-03-17 07:18:00,
2013-03-17 02:24:00,28.2,19.0,30.09,North,0,5.4,8.3,68,0.00,OVC,FEW,0.00,WeatherDisplay:10.37,2013-03-17 07:24:00,
2013-03-17 02:29:00,28.2,19.0,30.08,North,0,6.0,9.2,68,0.00,OVC,FEW,0.00,WeatherDisplay:10.37,2013-03-17 07:29:00,
2013-03-17 02:35:00,28.0,18.5,30.08,North,0,4.5,9.2,67,0.00,OVC,FEW,0.00,WeatherDisplay:10.37,2013-03-17 07:35:00,
2013-03-17 02:41:00,28.0,18.5,30.08,North,0,4.5,9.2,67,0.00,OVC,FEW,0.00,WeatherDisplay:10.37,2013-03-17 07:41:00,
2013-03-17 02:46:00,27.9,16.9,30.08,NW,315,4.5,10.4,63,0.00,OVC,FEW,0.00,WeatherDisplay:10.37,2013-03-17 07:46:00,
2013-03-17 02:52:00,27.9,16.5,30.08,NNW,338,6.9,11.5,62,0.00,OVC,FEW,0.00,WeatherDisplay:10.37,2013-03-17 07:52:00,
2013-03-17 02:57:00,27.7,16.3,30.08,NW,315,4.5,9.2,62,0.00,OVC,FEW,0.00,WeatherDisplay:10.37,2013-03-17 07:57:00,
2013-03-17 03:03:00,27.7,16.3,30.08,North,0,5.4,9.2,62,0.00,OVC,FEW,0.00,WeatherDisplay:10.37,2013-03-17 08:03:00,
2013-03-17 03:09:00,27.7,16.3,30.08,North,0,5.4,9.2,62,0.00,OVC,FEW,0.00,WeatherDisplay:10.37,2013-03-17 08:09:00,
2013-03-17 03:14:00,27.5,16.2,30.08,North,0,4.5,10.4,62,0.00,OVC,FEW,0.00,WeatherDisplay:10.37,2013-03-17 08:14:00,
2013-03-17 03:20:00,27.5,16.2,30.08,North,0,4.5,10.4,62,0.00,OVC,FEW,0.00,WeatherDisplay:10.37,2013-03-17 08:20:00,
2013-03-17 03:25:00,27.5,16.5,30.08,NW,315,3.8,8.1,63,0.00,OVC,FEW,0.00,WeatherDisplay:10.37,2013-03-17 08:25:00,
2013-03-17 03:31:00,27.5,16.5,30.07,NE,45,6.0,10.7,63,0.00,OVC,FEW,0.00,WeatherDisplay:10.37,2013-03-17 08:31:00,
2013-03-17 03:37:00,27.3,16.7,30.07,North,0,6.0,9.2,64,0.00,OVC,FEW,0.00,WeatherDisplay:10.37,2013-03-17 08:37:00,
2013-03-17 03:42:00,27.3,16.7,30.06,North,0,4.5,10.4,64,0.00,OVC,FEW,0.00,WeatherDisplay:10.37,2013-03-17 08:42:00,
2013-03-17 03:48:00,27.3,17.1,30.06,North,0,4.5,7.6,65,0.00,OVC,FEW,0.00,WeatherDisplay:10.37,2013-03-17 08:48:00,
2013-03-17 03:53:00,27.1,17.3,30.06,SW,225,5.4,12.7,66,0.00,OVC,FEW,0.00,WeatherDisplay:10.37,2013-03-17 08:53:00,
2013-03-17 03:59:00,27.3,17.5,30.06,NW,315,6.0,10.4,66,0.00,OVC,FEW,0.00,WeatherDisplay:10.37,2013-03-17 08:59:00,
2013-03-17 04:05:00,27.1,17.3,30.06,North,0,4.5,9.2,66,0.00,OVC,FEW,0.00,WeatherDisplay:10.37,2013-03-17 09:05:00,
2013-03-17 04:10:00,27.1,18.0,30.06,North,0,3.1,9.2,68,0.00,OVC,FEW,0.00,WeatherDisplay:10.37,2013-03-17 09:10:00,
2013-03-17 04:16:00,27.0,17.8,30.06,NW,315,3.8,8.1,68,0.00,OVC,FEW,0.00,WeatherDisplay:10.37,2013-03-17 09:16:00,
2013-03-17 04:21:00,27.0,18.1,30.06,North,0,3.8,6.9,69,0.00,OVC,FEW,0.00,WeatherDisplay:10.37,2013-03-17 09:21:00,
2013-03-17 04:27:00,27.0,18.1,30.06,East,90,3.1,8.1,69,0.00,OVC,FEW,0.00,WeatherDisplay:10.37,2013-03-17 09:27:00,
2013-03-17 04:33:00,27.0,18.5,30.06,ENE,68,3.1,7.6,70,0.00,OVC,FEW,0.00,WeatherDisplay:10.37,2013-03-17 09:33:00,
2013-03-17 04:38:00,27.0,18.5,30.06,East,90,3.1,8.1,70,0.00,OVC,FEW,0.00,WeatherDisplay:10.37,2013-03-17 09:38:00,
2013-03-17 04:44:00,27.0,18.5,30.06,North,0,3.1,10.4,70,0.00,OVC,FEW,0.00,WeatherDisplay:10.37,2013-03-17 09:44:00,
2013-03-17 04:49:00,27.0,18.1,30.07,NE,45,3.8,6.9,69,0.00,OVC,FEW,0.00,WeatherDisplay:10.37,2013-03-17 09:49:00,
2013-03-17 04:55:00,27.0,17.8,30.07,NW,315,3.8,9.8,68,0.00,OVC,FEW,0.00,WeatherDisplay:10.37,2013-03-17 09:55:00,
2013-03-17 05:01:00,27.0,17.8,30.08,North,0,3.8,6.0,68,0.00,OVC,FEW,0.00,WeatherDisplay:10.37,2013-03-17 10:01:00,
2013-03-17 05:07:00,27.0,17.8,30.08,North,0,3.8,6.0,68,0.00,OVC,FEW,0.00,WeatherDisplay:10.37,2013-03-17 10:07:00,
2013-03-17 05:13:00,27.1,17.6,30.09,NE,45,5.4,8.3,67,0.00,OVC,FEW,0.00,WeatherDisplay:10.37,2013-03-17 10:13:00,
2013-03-17 05:18:00,27.0,16.4,30.09,East,90,5.4,8.1,64,0.00,OVC,FEW,0.00,WeatherDisplay:10.37,2013-03-17 10:18:00,
2013-03-17 05:24:00,27.0,16.4,30.08,East,90,4.5,8.1,64,0.00,OVC,FEW,0.00,WeatherDisplay:10.37,2013-03-17 10:24:00,
2013-03-17 05:29:00,27.0,16.4,30.09,North,0,3.8,6.9,64,0.00,OVC,FEW,0.00,WeatherDisplay:10.37,2013-03-17 10:29:00,
2013-03-17 05:35:00,26.8,16.2,30.09,NE,45,3.1,5.8,64,0.00,OVC,FEW,0.00,WeatherDisplay:10.37,2013-03-17 10:35:00,
2013-03-17 05:41:00,26.8,16.2,30.09,North,0,1.6,8.1,64,0.00,OVC,FEW,0.00,WeatherDisplay:10.37,2013-03-17 10:41:00,
2013-03-17 05:46:00,26.8,16.2,30.10,East,90,2.2,5.8,64,0.00,OVC,FEW,0.00,WeatherDisplay:10.37,2013-03-17 10:46:00,
2013-03-17 05:52:00,26.6,16.1,30.09,East,90,1.6,5.8,64,0.00,OVC,FEW,0.00,WeatherDisplay:10.37,2013-03-17 10:52:00,
2013-03-17 05:57:00,26.6,16.1,30.10,NE,45,4.5,6.9,64,0.00,OVC,FEW,0.00,WeatherDisplay:10.37,2013-03-17 10:57:00,
2013-03-17 06:03:00,26.6,15.7,30.10,East,90,3.8,6.9,63,0.00,OVC,FEW,0.00,WeatherDisplay:10.37,2013-03-17 11:03:00,
2013-03-17 06:09:00,26.4,15.5,30.10,NNE,22,2.2,6.9,63,0.00,OVC,FEW,0.00,WeatherDisplay:10.37,2013-03-17 11:09:00,
2013-03-17 06:14:00,26.4,15.5,30.10,NE,45,3.1,5.8,63,0.00,OVC,FEW,0.00,WeatherDisplay:10.37,2013-03-17 11:14:00,
2013-03-17 06:20:00,26.2,15.3,30.11,NE,45,5.4,8.1,63,0.00,OVC,FEW,0.00,WeatherDisplay:10.37,2013-03-17 11:20:00,
2013-03-17 06:25:00,26.1,15.2,30.10,NE,45,4.5,6.9,63,0.00,OVC,FEW,0.00,WeatherDisplay:10.37,2013-03-17 11:25:00,
2013-03-17 06:31:00,26.1,14.8,30.11,NE,45,6.0,6.0,62,0.00,OVC,FEW,0.00,WeatherDisplay:10.37,2013-03-17 11:31:00,
2013-03-17 06:37:00,26.1,14.4,30.10,East,90,3.8,6.0,61,0.00,OVC,FEW,0.00,WeatherDisplay:10.37,2013-03-17 11:37:00,
2013-03-17 06:42:00,25.9,14.6,30.10,NE,45,4.5,8.1,62,0.00,OVC,FEW,0.00,WeatherDisplay:10.37,2013-03-17 11:42:00,
2013-03-17 06:48:00,25.9,14.6,30.10,ENE,68,4.5,10.4,62,0.00,OVC,FEW,0.00,WeatherDisplay:10.37,2013-03-17 11:48:00,
2013-03-17 06:53:00,25.7,14.8,30.10,NE,45,3.1,8.1,63,0.00,OVC,FEW,0.00,WeatherDisplay:10.37,2013-03-17 11:53:00,
2013-03-17 06:59:00,25.7,14.8,30.11,NE,45,3.1,6.0,63,0.00,OVC,FEW,0.00,WeatherDisplay:10.37,2013-03-17 11:59:00,
2013-03-17 07:05:00,25.5,15.0,30.11,East,90,1.6,8.1,64,0.00,OVC,FEW,0.00,WeatherDisplay:10.37,2013-03-17 12:05:00,
2013-03-17 07:10:00,25.5,14.7,30.11,East,90,4.5,8.1,63,0.00,OVC,FEW,0.00,WeatherDisplay:10.37,2013-03-17 12:10:00,
2013-03-17 07:17:00,25.5,15.0,30.11,East,90,3.1,6.9,64,0.00,OVC,FEW,0.00,WeatherDisplay:10.37,2013-03-17 12:17:00,
2013-03-17 07:22:00,25.3,14.5,30.11,East,90,2.2,6.9,63,0.00,OVC,FEW,0.00,WeatherDisplay:10.37,2013-03-17 12:22:00,
2013-03-17 07:28:00,25.3,14.1,30.11,NE,45,3.8,6.0,62,0.00,OVC,FEW,0.00,WeatherDisplay:10.37,2013-03-17 12:28:00,
2013-03-17 07:33:00,25.3,13.8,30.11,SE,135,3.1,8.1,61,0.00,OVC,FEW,0.00,WeatherDisplay:10.37,2013-03-17 12:33:00,
2013-03-17 07:39:00,25.5,13.9,30.11,NW,315,2.2,5.8,61,0.00,OVC,FEW,0.00,WeatherDisplay:10.37,2013-03-17 12:39:00,
2013-03-17 07:45:00,25.5,13.5,30.11,NE,45,3.8,8.1,60,0.00,OVC,FEW,0.00,WeatherDisplay:10.37,2013-03-17 12:45:00,
2013-03-17 07:50:00,25.7,13.3,30.11,East,90,2.2,8.1,59,0.00,OVC,FEW,0.00,WeatherDisplay:10.37,2013-03-17 12:50:00,
2013-03-17 07:57:00,26.1,13.7,30.12,East,90,2.2,8.1,59,0.00,OVC,FEW,0.00,WeatherDisplay:10.37,2013-03-17 12:57:00,
2013-03-17 08:02:00,25.9,13.1,30.12,NE,45,6.0,11.5,58,0.00,OVC,FEW,0.00,WeatherDisplay:10.37,2013-03-17 13:02:00,
2013-03-17 08:08:00,26.1,12.9,30.12,NE,45,5.4,7.6,57,0.00,OVC,FEW,0.00,WeatherDisplay:10.37,2013-03-17 13:08:00,
2013-03-17 08:13:00,26.4,12.8,30.12,East,90,4.5,8.1,56,0.00,OVC,FEW,0.00,WeatherDisplay:10.37,2013-03-17 13:13:00,
2013-03-17 08:19:00,26.8,13.2,30.13,East,90,1.6,8.1,56,0.00,OVC,FEW,0.00,WeatherDisplay:10.37,2013-03-17 13:19:00,
2013-03-17 08:25:00,27.1,13.5,30.13,SE,135,2.2,4.6,56,0.00,OVC,FEW,0.00,WeatherDisplay:10.37,2013-03-17 13:25:00,
2013-03-17 08:30:00,27.1,13.1,30.12,NE,45,3.8,8.1,55,0.00,OVC,FEW,0.00,WeatherDisplay:10.37,2013-03-17 13:30:00,
2013-03-17 08:36:00,27.0,12.9,30.12,East,90,4.5,6.9,55,0.00,OVC,FEW,0.00,WeatherDisplay:10.37,2013-03-17 13:36:00,
2013-03-17 08:41:00,27.3,13.7,30.12,NE,45,3.1,6.9,56,0.00,OVC,FEW,0.00,WeatherDisplay:10.37,2013-03-17 13:41:00,
2013-03-17 08:47:00,27.7,13.6,30.12,NE,45,1.6,6.0,55,0.00,OVC,FEW,0.00,WeatherDisplay:10.37,2013-03-17 13:47:00,
2013-03-17 08:53:00,27.7,13.2,30.13,NE,45,3.8,8.1,54,0.00,OVC,FEW,0.00,WeatherDisplay:10.37,2013-03-17 13:53:00,
2013-03-17 08:58:00,27.9,12.9,30.13,South,180,5.4,10.4,53,0.00,OVC,FEW,0.00,WeatherDisplay:10.37,2013-03-17 13:58:00,
2013-03-17 09:04:00,28.2,13.3,30.13,SE,135,3.1,7.6,53,0.00,OVC,FEW,0.00,WeatherDisplay:10.37,2013-03-17 14:04:00,
2013-03-17 09:09:00,28.8,13.3,30.13,East,90,1.6,5.8,52,0.00,OVC,FEW,0.00,WeatherDisplay:10.37,2013-03-17 14:09:00,
2013-03-17 09:15:00,28.8,12.9,30.13,North,0,4.5,5.8,51,0.00,OVC,FEW,0.00,WeatherDisplay:10.37,2013-03-17 14:15:00,
2013-03-17 09:21:00,28.9,13.5,30.13,East,90,3.8,6.9,52,0.00,OVC,FEW,0.00,WeatherDisplay:10.37,2013-03-17 14:21:00,
2013-03-17 09:26:00,28.9,13.5,30.13,East,90,3.1,10.4,52,0.00,OVC,FEW,0.00,WeatherDisplay:10.37,2013-03-17 14:26:00,
2013-03-17 09:32:00,29.5,13.6,30.13,ENE,68,3.8,8.1,51,0.00,OVC,FEW,0.00,WeatherDisplay:10.37,2013-03-17 14:32:00,
2013-03-17 09:37:00,29.3,13.4,30.13,East,90,3.1,9.2,51,0.00,OVC,FEW,0.00,WeatherDisplay:10.37,2013-03-17 14:37:00,
2013-03-17 09:43:00,29.8,13.9,30.12,East,90,3.1,8.1,51,0.00,OVC,FEW,0.00,WeatherDisplay:10.37,2013-03-17 14:43:00,
2013-03-17 09:49:00,29.7,12.3,30.12,ENE,68,6.0,15.0,48,0.00,OVC,FEW,0.00,WeatherDisplay:10.37,2013-03-17 14:49:00,
2013-03-17 09:54:00,29.3,12.0,30.13,NE,45,3.1,11.5,48,0.00,OVC,FEW,0.00,WeatherDisplay:10.37,2013-03-17 14:54:00,
2013-03-17 10:00:00,29.7,12.3,30.12,East,90,2.2,5.8,48,0.00,OVC,FEW,0.00,WeatherDisplay:10.37,2013-03-17 15:00:00,
2013-03-17 10:05:00,30.6,13.2,30.12,NE,45,4.5,8.1,48,0.00,OVC,FEW,0.00,WeatherDisplay:10.37,2013-03-17 15:05:00,
2013-03-17 10:12:00,30.7,13.3,30.12,NE,45,2.2,8.1,48,0.00,OVC,FEW,0.00,WeatherDisplay:10.37,2013-03-17 15:12:00,
2013-03-17 10:17:00,31.6,13.7,30.12,East,90,3.8,8.3,47,0.00,OVC,FEW,0.00,WeatherDisplay:10.37,2013-03-17 15:17:00,
2013-03-17 10:23:00,31.6,13.2,30.12,East,90,6.0,11.5,46,0.00,OVC,FEW,0.00,WeatherDisplay:10.37,2013-03-17 15:23:00,
2013-03-17 10:29:00,32.4,13.9,30.12,North,0,2.2,10.4,46,0.00,OVC,FEW,0.00,WeatherDisplay:10.37,2013-03-17 15:29:00,
2013-03-17 10:34:00,32.9,13.3,30.12,East,90,5.4,9.2,44,0.00,OVC,FEW,0.00,WeatherDisplay:10.37,2013-03-17 15:34:00,
2013-03-17 10:40:00,33.4,13.8,30.12,East,90,4.5,8.3,44,0.00,OVC,FEW,0.00,WeatherDisplay:10.37,2013-03-17 15:40:00,
2013-03-17 10:45:00,33.3,13.7,30.11,NW,315,3.1,9.2,44,0.00,OVC,FEW,0.00,WeatherDisplay:10.37,2013-03-17 15:45:00,
2013-03-17 10:51:00,33.8,14.2,30.11,SE,135,1.6,8.1,44,0.00,OVC,FEW,0.00,WeatherDisplay:10.37,2013-03-17 15:51:00,
2013-03-17 10:57:00,34.5,15.3,30.11,East,90,3.8,8.1,45,0.00,OVC,FEW,0.00,WeatherDisplay:10.37,2013-03-17 15:57:00,
2013-03-17 11:02:00,35.1,14.8,30.11,SE,135,3.1,8.1,43,0.00,OVC,FEW,0.00,WeatherDisplay:10.37,2013-03-17 16:02:00,
2013-03-17 11:08:00,34.9,15.1,30.11,SE,135,3.1,8.1,44,0.00,OVC,FEW,0.00,WeatherDisplay:10.37,2013-03-17 16:08:00,
2013-03-17 11:13:00,34.7,15.5,30.11,NE,45,3.8,5.8,45,0.00,OVC,FEW,0.00,WeatherDisplay:10.37,2013-03-17 16:13:00,
2013-03-17 11:19:00,35.2,16.0,30.11,NE,45,5.4,5.8,45,0.00,OVC,FEW,0.00,WeatherDisplay:10.37,2013-03-17 16:19:00,
2013-03-17 11:25:00,35.1,16.3,30.11,East,90,1.6,8.1,46,0.00,OVC,FEW,0.00,WeatherDisplay:10.37,2013-03-17 16:25:00,
2013-03-17 11:30:00,36.3,17.0,30.11,SE,135,3.1,6.9,45,0.00,OVC,FEW,0.00,WeatherDisplay:10.37,2013-03-17 16:30:00,
2013-03-17 11:37:00,37.0,16.0,30.11,East,90,3.8,10.4,42,0.00,OVC,FEW,0.00,WeatherDisplay:10.37,2013-03-17 16:37:00,
2013-03-17 11:42:00,36.0,16.1,30.11,SE,135,3.8,6.9,44,0.00,OVC,FEW,0.00,WeatherDisplay:10.37,2013-03-17 16:42:00,
2013-03-17 11:48:00,35.8,16.0,30.11,NE,45,3.8,10.4,44,0.00,OVC,FEW,0.00,WeatherDisplay:10.37,2013-03-17 16:48:00,
2013-03-17 11:53:00,36.7,16.8,30.10,ENE,68,3.8,6.9,44,0.00,OVC,FEW,0.00,WeatherDisplay:10.37,2013-03-17 16:53:00,
2013-03-17 11:59:00,37.0,17.1,30.10,NE,45,4.5,6.9,44,0.00,OVC,FEW,0.00,WeatherDisplay:10.37,2013-03-17 16:59:00,
2013-03-17 12:05:00,36.3,17.0,30.09,East,90,3.8,9.2,45,0.00,OVC,FEW,0.00,WeatherDisplay:10.37,2013-03-17 17:05:00,
2013-03-17 12:10:00,36.7,17.3,30.09,East,90,4.5,8.1,45,0.00,OVC,FEW,0.00,WeatherDisplay:10.37,2013-03-17 17:10:00,
2013-03-17 12:16:00,35.2,16.0,30.08,SE,135,2.2,8.1,45,0.00,OVC,FEW,0.00,WeatherDisplay:10.37,2013-03-17 17:16:00,
2013-03-17 12:21:00,35.6,17.3,30.08,NE,45,4.5,8.1,47,0.00,OVC,FEW,0.00,WeatherDisplay:10.37,2013-03-17 17:21:00,
2013-03-17 12:27:00,35.6,17.3,30.08,North,0,3.8,10.4,47,0.00,OVC,FEW,0.00,WeatherDisplay:10.37,2013-03-17 17:27:00,
2013-03-17 12:33:00,36.0,17.2,30.08,East,90,2.2,6.9,46,0.00,OVC,FEW,0.00,WeatherDisplay:10.37,2013-03-17 17:33:00,
2013-03-17 12:38:00,35.6,16.8,30.08,East,90,9.2,14.5,46,0.00,OVC,FEW,0.00,WeatherDisplay:10.37,2013-03-17 17:38:00,
2013-03-17 12:44:00,35.6,17.8,30.07,East,90,3.8,11.5,48,0.00,OVC,FEW,0.00,WeatherDisplay:10.37,2013-03-17 17:44:00,
2013-03-17 12:49:00,36.9,18.5,30.07,SE,135,1.6,5.8,47,0.00,OVC,FEW,0.00,WeatherDisplay:10.37,2013-03-17 17:49:00,
2013-03-17 12:55:00,37.9,18.5,30.06,South,180,5.4,9.2,45,0.00,OVC,FEW,0.00,WeatherDisplay:10.37,2013-03-17 17:55:00,
2013-03-17 13:01:00,36.7,17.3,30.06,West,270,2.2,10.4,45,0.00,OVC,FEW,0.00,WeatherDisplay:10.37,2013-03-17 18:01:00,
2013-03-17 13:06:00,37.0,18.7,30.06,NE,45,2.2,8.1,47,0.00,OVC,FEW,0.00,WeatherDisplay:10.37,2013-03-17 18:06:00,
2013-03-17 13:12:00,37.0,18.1,30.06,South,180,4.5,8.3,46,0.00,OVC,FEW,0.00,WeatherDisplay:10.37,2013-03-17 18:12:00,
2013-03-17 13:17:00,36.9,17.5,30.05,East,90,3.8,6.9,45,0.00,OVC,FEW,0.00,WeatherDisplay:10.37,2013-03-17 18:17:00,
2013-03-17 13:23:00,37.6,18.6,30.05,SE,135,3.8,9.8,46,0.00,OVC,FEW,0.00,WeatherDisplay:10.37,2013-03-17 18:23:00,
2013-03-17 13:29:00,37.2,17.3,30.05,SE,135,5.4,10.4,44,0.00,OVC,FEW,0.00,WeatherDisplay:10.37,2013-03-17 18:29:00,
2013-03-17 13:34:00,37.2,18.3,30.05,East,90,1.6,8.1,46,0.00,OVC,FEW,0.00,WeatherDisplay:10.37,2013-03-17 18:34:00,
2013-03-17 13:40:00,37.2,18.3,30.05,East,90,2.2,6.9,46,0.00,OVC,FEW,0.00,WeatherDisplay:10.37,2013-03-17 18:40:00,
2013-03-17 13:45:00,37.6,18.6,30.04,East,90,3.8,8.1,46,0.00,OVC,FEW,0.00,WeatherDisplay:10.37,2013-03-17 18:45:00,
2013-03-17 13:51:00,37.6,19.1,30.04,SE,135,3.1,6.9,47,0.00,OVC,FEW,0.00,WeatherDisplay:10.37,2013-03-17 18:51:00,
2013-03-17 13:57:00,37.2,18.3,30.04,NE,45,4.5,9.2,46,0.00,OVC,FEW,0.00,WeatherDisplay:10.37,2013-03-17 18:57:00,
2013-03-17 14:02:00,37.8,18.8,30.04,East,90,3.1,6.9,46,0.00,OVC,FEW,0.00,WeatherDisplay:10.37,2013-03-17 19:02:00,
2013-03-17 14:08:00,37.6,18.6,30.03,East,90,1.6,8.1,46,0.00,OVC,FEW,0.00,WeatherDisplay:10.37,2013-03-17 19:08:00,
2013-03-17 14:13:00,37.6,19.1,30.04,NE,45,3.8,10.4,47,0.00,OVC,FEW,0.00,WeatherDisplay:10.37,2013-03-17 19:13:00,
2013-03-17 14:19:00,37.2,18.8,30.03,East,90,4.5,8.1,47,0.00,OVC,FEW,0.00,WeatherDisplay:10.37,2013-03-17 19:19:00,
2013-03-17 14:25:00,36.7,19.3,30.03,NE,45,2.2,6.9,49,0.00,OVC,FEW,0.00,WeatherDisplay:10.37,2013-03-17 19:25:00,
2013-03-17 14:30:00,37.2,19.3,30.03,East,90,3.8,8.1,48,0.00,OVC,FEW,0.00,WeatherDisplay:10.37,2013-03-17 19:30:00,
2013-03-17 14:37:00,37.0,19.6,30.02,East,90,1.6,8.1,49,0.00,OVC,FEW,0.00,WeatherDisplay:10.37,2013-03-17 19:37:00,
2013-03-17 14:42:00,37.0,19.1,30.02,SE,135,3.1,9.2,48,0.00,OVC,FEW,0.00,WeatherDisplay:10.37,2013-03-17 19:42:00,
2013-03-17 14:48:00,37.4,20.0,30.01,NE,45,3.8,6.9,49,0.00,OVC,FEW,0.00,WeatherDisplay:10.37,2013-03-17 19:48:00,
2013-03-17 14:53:00,36.5,19.6,30.01,East,90,3.1,10.4,50,0.00,OVC,FEW,0.00,WeatherDisplay:10.37,2013-03-17 19:53:00,
2013-03-17 14:59:00,36.1,19.7,30.01,East,90,4.5,9.2,51,0.00,OVC,FEW,0.00,WeatherDisplay:10.37,2013-03-17 19:59:00,
2013-03-17 15:05:00,36.0,20.5,30.01,NE,45,3.8,15.0,53,0.00,OVC,FEW,0.00,WeatherDisplay:10.37,2013-03-17 20:05:00,
2013-03-17 15:10:00,36.1,20.2,30.00,East,90,3.8,9.2,52,0.00,OVC,FEW,0.00,WeatherDisplay:10.37,2013-03-17 20:10:00,
2013-03-17 15:17:00,36.7,20.7,30.00,ENE,68,5.4,8.3,52,0.00,OVC,FEW,0.00,WeatherDisplay:10.37,2013-03-17 20:17:00,
2013-03-17 15:22:00,36.9,20.9,30.00,East,90,6.0,10.7,52,0.00,OVC,FEW,0.00,WeatherDisplay:10.37,2013-03-17 20:22:00,
2013-03-17 15:28:00,36.3,20.8,29.99,East,90,3.8,6.9,53,0.00,OVC,FEW,0.00,WeatherDisplay:10.37,2013-03-17 20:28:00,
2013-03-17 15:33:00,36.7,21.1,29.99,NE,45,5.4,8.1,53,0.00,OVC,FEW,0.00,WeatherDisplay:10.37,2013-03-17 20:33:00,
2013-03-17 15:39:00,36.1,20.6,29.98,East,90,3.1,6.9,53,0.00,OVC,FEW,0.00,WeatherDisplay:10.37,2013-03-17 20:39:00,
2013-03-17 15:45:00,36.5,21.4,29.98,East,90,2.2,8.1,54,0.00,OVC,FEW,0.00,WeatherDisplay:10.37,2013-03-17 20:45:00,
2013-03-17 15:50:00,36.1,20.6,29.99,NE,45,6.0,11.5,53,0.00,OVC,FEW,0.00,WeatherDisplay:10.37,2013-03-17 20:50:00,
2013-03-17 15:57:00,35.8,21.2,29.99,NE,45,6.0,9.2,55,0.00,OVC,FEW,0.00,WeatherDisplay:10.37,2013-03-17 20:57:00,
2013-03-17 16:02:00,35.8,21.6,29.99,ENE,68,4.5,8.1,56,0.00,OVC,FEW,0.00,WeatherDisplay:10.37,2013-03-17 21:02:00,
2013-03-17 16:08:00,35.8,21.6,29.98,East,90,6.0,10.4,56,0.00,OVC,FEW,0.00,WeatherDisplay:10.37,2013-03-17 21:08:00,
2013-03-17 16:13:00,35.6,21.4,29.98,NE,45,3.8,9.2,56,0.00,OVC,FEW,0.00,WeatherDisplay:10.37,2013-03-17 21:13:00,
2013-03-17 16:19:00,35.6,21.4,29.98,East,90,3.1,6.9,56,0.00,OVC,FEW,0.00,WeatherDisplay:10.37,2013-03-17 21:19:00,
2013-03-17 16:25:00,35.6,21.4,29.98,NE,45,2.2,5.8,56,0.00,OVC,FEW,0.00,WeatherDisplay:10.37,2013-03-17 21:25:00,
2013-03-17 16:30:00,35.8,21.6,29.97,SE,135,2.2,8.1,56,0.00,OVC,FEW,0.00,WeatherDisplay:10.37,2013-03-17 21:30:00,
2013-03-17 16:37:00,36.0,22.2,29.97,NE,45,5.4,8.3,57,0.00,OVC,FEW,0.00,WeatherDisplay:10.37,2013-03-17 21:37:00,
2013-03-17 16:42:00,35.8,22.0,29.97,SW,225,2.2,4.6,57,0.00,OVC,FEW,0.00,WeatherDisplay:10.37,2013-03-17 21:42:00,
2013-03-17 16:48:00,35.8,22.0,29.97,ENE,68,0.7,2.3,57,0.00,OVC,FEW,0.00,WeatherDisplay:10.37,2013-03-17 21:48:00,
2013-03-17 16:53:00,36.0,21.8,29.97,SE,135,5.4,11.5,56,0.00,OVC,FEW,0.00,WeatherDisplay:10.37,2013-03-17 21:53:00,
2013-03-17 16:59:00,35.6,21.9,29.97,East,90,3.1,8.1,57,0.00,OVC,FEW,0.00,WeatherDisplay:10.37,2013-03-17 21:59:00,
2013-03-17 17:05:00,35.6,21.9,29.97,East,90,4.5,9.2,57,0.00,OVC,FEW,0.00,WeatherDisplay:10.37,2013-03-17 22:05:00,
2013-03-17 17:10:00,35.6,21.9,29.97,East,90,5.4,10.4,57,0.00,OVC,FEW,0.00,WeatherDisplay:10.37,2013-03-17 22:10:00,
2013-03-17 17:17:00,35.6,22.3,29.97,East,90,3.8,8.1,58,0.00,OVC,FEW,0.00,WeatherDisplay:10.37,2013-03-17 22:17:00,
2013-03-17 17:22:00,35.6,22.3,29.96,SE,135,3.8,8.1,58,0.00,OVC,FEW,0.00,WeatherDisplay:10.37,2013-03-17 22:22:00,
2013-03-17 17:28:00,35.6,22.3,29.96,East,90,2.2,8.1,58,0.00,OVC,FEW,0.00,WeatherDisplay:10.37,2013-03-17 22:28:00,
2013-03-17 17:33:00,35.6,22.3,29.96,SE,135,3.8,9.2,58,0.00,OVC,FEW,0.00,WeatherDisplay:10.37,2013-03-17 22:33:00,
2013-03-17 17:39:00,35.6,22.3,29.95,East,90,2.2,8.1,58,0.00,OVC,FEW,0.00,WeatherDisplay:10.37,2013-03-17 22:39:00,
2013-03-17 17:45:00,35.6,22.3,29.95,East,90,3.8,8.1,58,0.00,OVC,FEW,0.00,WeatherDisplay:10.37,2013-03-17 22:45:00,
2013-03-17 17:50:00,35.6,22.7,29.95,ENE,68,3.1,8.1,59,0.00,OVC,FEW,0.00,WeatherDisplay:10.37,2013-03-17 22:50:00,
2013-03-17 17:56:00,35.6,22.7,29.95,East,90,3.1,5.8,59,0.00,OVC,FEW,0.00,WeatherDisplay:10.37,2013-03-17 22:56:00,
2013-03-17 18:01:00,35.4,22.5,29.94,East,90,5.4,8.3,59,0.00,OVC,FEW,0.00,WeatherDisplay:10.37,2013-03-17 23:01:00,
2013-03-17 18:07:00,35.4,22.9,29.94,East,90,3.8,10.4,60,0.00,OVC,FEW,0.00,WeatherDisplay:10.37,2013-03-17 23:07:00,
2013-03-17 18:13:00,35.1,23.0,29.94,East,90,3.8,9.2,61,0.00,OVC,FEW,0.00,WeatherDisplay:10.37,2013-03-17 23:13:00,
2013-03-17 18:18:00,34.9,23.2,29.94,NE,45,3.8,10.4,62,0.00,OVC,FEW,0.00,WeatherDisplay:10.37,2013-03-17 23:18:00,
2013-03-17 18:24:00,34.9,23.6,29.94,East,90,3.8,8.1,63,0.00,OVC,FEW,0.00,WeatherDisplay:10.37,2013-03-17 23:24:00,
2013-03-17 18:29:00,34.9,23.6,29.94,NE,45,5.4,9.2,63,0.00,OVC,FEW,0.00,WeatherDisplay:10.37,2013-03-17 23:29:00,
2013-03-17 18:35:00,34.9,23.6,29.94,East,90,3.8,3.8,63,0.00,OVC,FEW,0.00,WeatherDisplay:10.37,2013-03-17 23:35:00,
2013-03-17 18:41:00,34.7,23.4,29.94,East,90,4.5,7.6,63,0.00,OVC,FEW,0.00,WeatherDisplay:10.37,2013-03-17 23:41:00,
2013-03-17 18:47:00,34.7,23.8,29.93,East,90,2.2,8.1,64,0.00,OVC,FEW,0.00,WeatherDisplay:10.37,2013-03-17 23:47:00,
2013-03-17 18:53:00,34.5,23.6,29.93,East,90,1.6,6.9,64,0.00,OVC,FEW,0.00,WeatherDisplay:10.37,2013-03-17 23:53:00,
2013-03-17 18:58:00,34.5,23.6,29.93,East,90,1.6,5.8,64,0.00,OVC,FEW,0.00,WeatherDisplay:10.37,2013-03-17 23:58:00,
2013-03-17 19:04:00,34.5,24.0,29.94,East,90,3.1,6.9,65,0.00,OVC,FEW,0.00,WeatherDisplay:10.37,2013-03-18 00:04:00,
2013-03-17 19:09:00,34.5,24.0,29.94,East,90,3.8,5.8,65,0.00,OVC,FEW,0.00,WeatherDisplay:10.37,2013-03-18 00:09:00,
2013-03-17 19:15:00,34.5,24.0,29.94,East,90,3.1,5.8,65,0.00,OVC,FEW,0.00,WeatherDisplay:10.37,2013-03-18 00:15:00,
2013-03-17 19:21:00,34.5,24.0,29.94,East,90,2.2,8.1,65,0.00,OVC,FEW,0.00,WeatherDisplay:10.37,2013-03-18 00:21:00,
2013-03-17 19:26:00,34.5,24.3,29.94,East,90,2.2,5.8,66,0.00,OVC,FEW,0.00,WeatherDisplay:10.37,2013-03-18 00:26:00,
2013-03-17 19:32:00,34.5,24.3,29.93,East,90,2.2,3.5,66,0.00,OVC,FEW,0.00,WeatherDisplay:10.37,2013-03-18 00:32:00,
2013-03-17 19:37:00,34.5,24.3,29.94,East,90,3.1,6.0,66,0.00,OVC,FEW,0.00,WeatherDisplay:10.37,2013-03-18 00:37:00,
2013-03-17 19:43:00,34.5,24.3,29.93,SE,135,2.2,5.8,66,0.00,OVC,FEW,0.00,WeatherDisplay:10.37,2013-03-18 00:43:00,
2013-03-17 19:49:00,34.5,24.3,29.93,South,180,2.2,4.6,66,0.00,OVC,FEW,0.00,WeatherDisplay:10.37,2013-03-18 00:49:00,
2013-03-17 19:54:00,34.3,24.2,29.93,East,90,1.6,6.9,66,0.00,OVC,FEW,0.00,WeatherDisplay:10.37,2013-03-18 00:54:00,
2013-03-17 20:00:00,34.3,24.2,29.93,NE,45,3.8,6.0,66,0.00,OVC,FEW,0.00,WeatherDisplay:10.37,2013-03-18 01:00:00,
2013-03-17 20:05:00,34.3,24.2,29.93,NE,45,3.1,6.9,66,0.00,OVC,FEW,0.00,WeatherDisplay:10.37,2013-03-18 01:05:00,
2013-03-17 20:11:00,34.3,24.2,29.93,SE,135,0.7,2.3,66,0.00,OVC,FEW,0.00,WeatherDisplay:10.37,2013-03-18 01:11:00,
2013-03-17 20:17:00,34.3,24.2,29.93,SE,135,3.1,5.4,66,0.00,OVC,FEW,0.00,WeatherDisplay:10.37,2013-03-18 01:17:00,
2013-03-17 20:22:00,34.2,24.3,29.93,East,90,1.6,5.8,67,0.00,OVC,FEW,0.00,WeatherDisplay:10.37,2013-03-18 01:22:00,
2013-03-17 20:28:00,34.0,24.2,29.93,East,90,1.6,4.6,67,0.00,OVC,FEW,0.00,WeatherDisplay:10.37,2013-03-18 01:28:00,
2013-03-17 20:33:00,33.8,24.0,29.92,SE,135,3.8,8.3,67,0.00,OVC,FEW,0.00,WeatherDisplay:10.37,2013-03-18 01:33:00,
2013-03-17 20:39:00,33.6,24.2,29.93,NE,45,1.6,5.8,68,0.00,OVC,FEW,0.00,WeatherDisplay:10.37,2013-03-18 01:39:00,
2013-03-17 20:45:00,33.4,24.0,29.93,ENE,68,3.1,5.8,68,0.00,OVC,FEW,0.00,WeatherDisplay:10.37,2013-03-18 01:45:00,
2013-03-17 20:50:00,33.4,24.0,29.92,East,90,2.2,10.4,68,0.00,OVC,FEW,0.00,WeatherDisplay:10.37,2013-03-18 01:50:00,
2013-03-17 20:57:00,33.3,24.2,29.93,East,90,3.1,8.1,69,0.00,OVC,FEW,0.00,WeatherDisplay:10.37,2013-03-18 01:57:00,
2013-03-17 21:02:00,33.1,24.0,29.92,East,90,1.6,4.6,69,0.00,OVC,FEW,0.00,WeatherDisplay:10.37,2013-03-18 02:02:00,
2013-03-17 21:08:00,33.1,24.0,29.92,East,90,2.2,5.8,69,0.00,OVC,FEW,0.00,WeatherDisplay:10.37,2013-03-18 02:08:00,
2013-03-17 21:13:00,32.9,23.8,29.91,ENE,68,3.1,6.9,69,0.00,OVC,FEW,0.00,WeatherDisplay:10.37,2013-03-18 02:13:00,
2013-03-17 21:19:00,32.9,23.8,29.91,East,90,2.2,8.1,69,0.00,OVC,FEW,0.00,WeatherDisplay:10.37,2013-03-18 02:19:00,
2013-03-17 21:25:00,32.7,24.0,29.91,East,90,3.8,8.1,70,0.00,OVC,FEW,0.00,WeatherDisplay:10.37,2013-03-18 02:25:00,
2013-03-17 21:30:00,32.9,24.2,29.91,East,90,2.2,6.9,70,0.00,OVC,FEW,0.00,WeatherDisplay:10.37,2013-03-18 02:30:00,
2013-03-17 21:36:00,32.7,23.7,29.90,North,0,5.4,12.1,69,0.00,OVC,FEW,0.00,WeatherDisplay:10.37,2013-03-18 02:36:00,
2013-03-17 21:41:00,32.7,23.7,29.91,East,90,3.8,8.1,69,0.00,OVC,FEW,0.00,WeatherDisplay:10.37,2013-03-18 02:41:00,
2013-03-17 21:47:00,32.7,23.7,29.91,East,90,3.8,5.8,69,0.00,OVC,FEW,0.00,WeatherDisplay:10.37,2013-03-18 02:47:00,
2013-03-17 21:53:00,32.7,23.3,29.91,East,90,4.5,10.4,68,0.00,OVC,FEW,0.00,WeatherDisplay:10.37,2013-03-18 02:53:00,
2013-03-17 21:58:00,32.7,23.3,29.91,East,90,3.1,9.2,68,0.00,OVC,FEW,0.00,WeatherDisplay:10.37,2013-03-18 02:58:00,
2013-03-17 22:04:00,32.5,23.1,29.90,ESE,112,3.1,9.2,68,0.00,OVC,FEW,0.00,WeatherDisplay:10.37,2013-03-18 03:04:00,
2013-03-17 22:09:00,32.5,23.1,29.89,East,90,3.1,11.5,68,0.00,OVC,FEW,0.00,WeatherDisplay:10.37,2013-03-18 03:09:00,
2013-03-17 22:15:00,32.5,23.5,29.89,SE,135,4.5,10.4,69,0.00,OVC,FEW,0.00,WeatherDisplay:10.37,2013-03-18 03:15:00,
2013-03-17 22:21:00,32.5,23.5,29.90,NE,45,0.7,13.8,69,0.00,OVC,FEW,0.00,WeatherDisplay:10.37,2013-03-18 03:21:00,
2013-03-17 22:27:00,32.4,23.3,29.89,SE,135,3.1,8.1,69,0.00,OVC,FEW,0.00,WeatherDisplay:10.37,2013-03-18 03:27:00,
2013-03-17 22:33:00,32.4,23.7,29.89,South,180,2.2,8.1,70,0.00,OVC,FEW,0.00,WeatherDisplay:10.37,2013-03-18 03:33:00,
2013-03-17 22:38:00,32.4,23.7,29.89,SE,135,3.8,11.5,70,0.00,OVC,FEW,0.00,WeatherDisplay:10.37,2013-03-18 03:38:00,
2013-03-17 22:44:00,32.4,23.7,29.89,South,180,3.1,6.9,70,0.00,OVC,FEW,0.00,WeatherDisplay:10.37,2013-03-18 03:44:00,
2013-03-17 22:49:00,32.4,23.7,29.89,NE,45,2.2,8.1,70,0.00,OVC,FEW,0.00,WeatherDisplay:10.37,2013-03-18 03:49:00,
2013-03-17 22:55:00,32.2,23.5,29.89,East,90,3.8,9.2,70,0.00,OVC,FEW,0.00,WeatherDisplay:10.37,2013-03-18 03:55:00,
2013-03-17 23:00:00,32.2,23.5,29.89,East,90,2.2,6.9,70,0.00,OVC,FEW,0.00,WeatherDisplay:10.37,2013-03-18 04:00:00,
2013-03-17 23:05:00,32.2,23.5,29.88,East,90,3.1,4.6,70,0.00,OVC,FEW,0.00,WeatherDisplay:10.37,2013-03-18 04:05:00,
2013-03-17 23:06:00,32.2,23.5,29.88,East,90,3.1,4.6,70,0.00,OVC,FEW,0.00,WeatherDisplay:10.37,2013-03-18 04:06:00,
2013-03-17 23:12:00,32.2,23.5,29.88,East,90,2.2,10.4,70,0.00,OVC,FEW,0.00,WeatherDisplay:10.37,2013-03-18 04:12:00,
2013-03-17 23:17:00,32.2,23.5,29.87,East,90,3.1,10.4,70,0.00,OVC,FEW,0.00,WeatherDisplay:10.37,2013-03-18 04:17:00,
2013-03-17 23:23:00,32.2,23.5,29.87,SE,135,1.6,8.1,70,0.00,OVC,FEW,0.00,WeatherDisplay:10.37,2013-03-18 04:23:00,
2013-03-17 23:29:00,32.2,23.5,29.87,East,90,3.8,5.8,70,0.00,OVC,FEW,0.00,WeatherDisplay:10.37,2013-03-18 04:29:00,
2013-03-17 23:34:00,32.4,23.7,29.87,NE,45,2.2,6.9,70,0.00,OVC,FEW,0.00,WeatherDisplay:10.37,2013-03-18 04:34:00,
2013-03-17 23:40:00,32.4,23.7,29.87,East,90,2.2,5.8,70,0.00,OVC,FEW,0.00,WeatherDisplay:10.37,2013-03-18 04:40:00,
2013-03-17 23:45:00,32.4,23.7,29.87,South,180,1.6,5.4,70,0.00,OVC,FEW,0.00,WeatherDisplay:10.37,2013-03-18 04:45:00,
2013-03-17 23:52:00,32.4,23.7,29.86,East,90,3.1,4.6,70,0.00,OVC,FEW,0.00,WeatherDisplay:10.37,2013-03-18 04:52:00,
2013-03-17 23:57:00,32.4,23.7,29.86,East,90,1.6,5.8,70,0.00,OVC,FEW,0.00,WeatherDisplay:10.37,2013-03-18 04:57:00,